sat.trackr.live / text

‹ back to catalog

STARLINK-2396

NORAD 47815 · 2021-018AE

PAYLOAD ACTIVE UNKNOWN

§ Identity

Operator
Country
US
Launch date
2021-03-11
Launch site
AFETR
Launch vehicle
Mass (kg)
RCS (m²)

Purposes: comms

External: N2YO · Heavens-Above · Gunter

§ Orbital elements

Epoch: 2026-09-20T03:06:46.116288Z

Period
94.01 min
Inclination
53.1588°
Eccentricity
0.0001435
Mean motion
15.31702719 rev/d
Perigee alt
469.7 km
Apogee alt
471.7 km
Semi-major
6,848.9 km
B*
-1.1505e-5
RAAN
57.7983°
Arg perigee
62.3173°
Mean anomaly
297.7974°
Rev number
30,651

§ Raw data

STARLINK-23961 47815U 21018AE  26263.12970042 -.00000722  00000+0 -11505-4 0  99992 47815  53.1588  57.7983 0001435  62.3173 297.7974 15.31702719306517

JSON: /api/v1/satellites/47815 · /tle

For live sub-satellite position, see the globe view (requires WebGL).

§ Visibility from observer

Set your observer location to see the next 7 days of passes ≥ 10°. The values pass through the URL so the page stays shareable.

No JS? Fill the form by hand. The geolocation button needs JavaScript.